Other Public Products
Issued by NWS Grand Forks, ND

Home | Current Version | Previous Version | Graphics & Text | Print | Product List | Glossary On
Versions: 1 2 3 4 5 6 7 8 9 10 11 12 13 14 15 16 17 18 19 20 21 22 23 24 25 26 27 28 29 30 31 32 33 34 35 36 37 38 39 40 41 42 43 44 45 46 47 48 49 50
000
FPUS83 KFGF 211710
OPUFGF
PRAIRIE TO PINES WEATHER ROUNDUP
NATIONAL WEATHER SERVICE EASTERN NORTH DAKOTA/GRAND FORKS ND
1200 PM CDT FRI JUL 21 2017

 **SATELLITE DATA USED TO AUGMENT SKY COVER AT AUTOMATED STATIONS**
 *****  WEATHER ACROSS EASTERN NORTH DAKOTA  *****

CITY           SKY/WX    TMP DP  RH WIND       PRES   REMARKS
GRAND FORKS    PTSUNNY   83  73  72 S7        29.78S
GRAND FORKS AF FAIR      83  73  70 S3        29.79S
GRAND CITY NWS NOT AVBL
BUXTON         NOT AVBL
DEVILS LAKE    FAIR      82  67  60 SW9       29.81R
FARGO          FAIR      85  72  65 W6        29.77F HX  91
WAHPETON ARPT  FAIR      81  72  74 SE6       29.81R
$$

 *****  WEATHER ACROSS CENTRAL AND WESTERN NORTH DAKOTA  *****

CITY           SKY/WX    TMP DP  RH WIND       PRES   REMARKS
JAMESTOWN      FAIR      85  66  53 N6        29.81F
BISMARCK       FAIR      82  65  56 CALM      29.84F
MINOT          TSTM      71  64  78 SE6       29.78R
MINOT AFB      FAIR      66  64  94 SW6G35    29.79R
GARRISON         N/A     82  64  54 VRB6      29.80F
WILLISTON      FAIR      82  60  47 SW7       29.81R
DICKINSON      FAIR      82  64  54 VRB5      29.83S
HETTINGER      FAIR      83  63  50 VRB3      29.87S
$$

 *****  OTHER OBSERVATIONS NORTHEAST NORTH DAKOTA  *****

CITY           SKY/WX    TMP DP  RH WIND       PRES   REMARKS
WALHALLA       NOT AVBL
LANGDON        CLOUDY    81  73  78 W3        29.86R
CAVALIER       FAIR      75  70  83 SE8G15    29.78F
GRAFTON        FAIR      81  72  74 E8        29.81S
CANDO          NOT AVBL
FORT TOTTEN      N/A     86  65  48 SW6       29.95S
ROLLA            N/A     70  70 100 VRB5      29.84R
RUGBY          NOT AVBL
 ***** THE ABOVE OBSERVATIONS ARE NON NWS ARE NOT QUALITY
        CONTROLLED AND MAY MIS-REPORT RAIN FOR SNOW...
$$

 *****  OTHER OBSERVATIONS SOUTHEAST NORTH DAKOTA *****

CITY           SKY/WX    TMP DP  RH WIND       PRES   REMARKS
COOPERSTOWN    FAIR      82  68  61 SW9       29.83R
VALLEY CITY    FAIR      82  68  61 W6        29.83S
OAKES          NOT AVBL
GWINNER        MOSUNNY   84  75  74 CALM      29.80S HX  92
SHEYENNE NWR     N/A     88  74  63 W5        29.95S HX  97
BUFFALO        NOT AVBL
WYNDMERE       NOT AVBL
 ***** THE ABOVE OBSERVATIONS ARE NON NWS ARE NOT QUALITY
       CONTROLLED AND MAY MIS-REPORT RAIN FOR SNOW...
$$

  *****  WEATHER ACROSS NORTHERN MINNESOTA  *****

CITY           SKY/WX    TMP DP  RH WIND       PRES   REMARKS
FLAG ISLAND    FAIR      73  57  56 SE9       29.88F
WARROAD        FAIR      75  66  73 E10       29.86F
ROSEAU         FAIR      77  64  65 E13       29.83F
HALLOCK        PTSUNNY   77  70  78 NW5       29.86R
THF RVR FALLS  CLOUDY    80  72  76 S5        29.82F
HALSTAD        NOT AVBL
FOSSTON        FAIR      81  68  65 S8        29.83F
BAUDETTE       FAIR      77  60  55 E14       29.87F
WASKISH        PTSUNNY   79  66  65 SE9       29.87F
CROOKSTON      FAIR      81  73  78 SW6       29.79F
$$
  *****  WEATHER ACROSS CENTRAL AND WEST MINNESOTA  *****

CITY           SKY/WX    TMP DP  RH WIND       PRES   REMARKS
BEMIDJI        FAIR      83  60  46 SE16      29.86F
PARK RAPIDS    FAIR      85  64  49 SE18      29.85F
WADENA         CLOUDY    77  66  69 SE9G16    29.85S
DETROIT LAKES  FAIR      79  70  73 SE9       29.84S
MOORHEAD       FAIR      84  72  65 S7        29.79R
FERGUS FALLS   PTSUNNY   79  72  78 S7        29.81S
ELBOW LAKE     FAIR      79  73  80 S6        29.83S
MORRIS MN      FAIR      81  70  69 SE7       29.82R
STAPLES        FAIR      81  61  50 SE10      29.85F
WHEATON        FAIR      79  70  73 CALM      29.83R
$$
  *****  WEATHER ELSEWHERE ACROSS MINNESOTA  *****

CITY           SKY/WX    TMP DP  RH WIND       PRES   REMARKS
DULUTH         FAIR      72  64  76 E10       29.95S
INTRNTL FALLS  FAIR      71  60  68 E7        29.92F
ELY            FAIR      72  55  56 E6        29.97F
CLOQUET        FAIR      72  61  68 SE3       29.95S
BRAINERD       FAIR      79  63  57 SE12G18   29.87F
HIBBING        FAIR      78  67  68 SE13      29.92F
ALEXANDRIA     FAIR      78  70  76 SE10      29.86S
SAINT CLOUD    FAIR      78  71  79 SE15G22   29.86S
MINNEAPOLIS    CLOUDY    74  67  78 S13       29.88F
$$

  *****  WEATHER ACROSS SOUTH DAKOTA  *****

CITY           SKY/WX    TMP DP  RH WIND       PRES   REMARKS
SIOUX FALLS    PTSUNNY   78  71  79 S12       29.81R
BROOKINGS      FAIR      80  70  71 SE9       29.84R
WATERTOWN      FAIR      84  70  62 VRB5      29.82R
HURON          FAIR      85  71  63 S10       29.81R HX  90
SISSETON         N/A     83  74  74 VRB6      29.80S
ABERDEEN       FAIR      82  73  74 SW6       29.82R
MITCHELL       FAIR      84  71  65 S13       29.80S
PIERRE         NOT AVBL
MOBRIDGE       FAIR      86  73  65 NW3       29.80S HX  93
RAPID CITY     FAIR      86  58  38 NW14      29.91R
$$

  *****  SOME WEATHER IN NEARBY STATES *****

CITY           SKY/WX    TMP DP  RH WIND       PRES   REMARKS
GLASGOW MT     FAIR      82  44  26 NW16G23   29.88R
GREAT FALLS MT FAIR      78  19  11 SW23G29   30.01F
CHEYENNE WY    FAIR      81  45  28 NW12      30.19R
SCOTTSBLUFF NE FAIR      87  56  34 W10       30.02R
OMAHA NE       FAIR      95  71  45 S14       29.80S HX 102
DES MOINES IA  FAIR      92  75  57 S7        29.86F HX 103
DAVENPORT IA   FAIR      82  71  69 SE14      29.97F
CHICAGO IL     PTSUNNY   86  71  60 SE5       29.99F HX  91
EAU CLAIRE WI  PTSUNNY   75  68  78 S10       29.95S
LA CROSSE WI   RAIN      73  71  93 S7        29.98R FOG
$$

  *****  SOME NATIONAL WEATHER *****

CITY           SKY/WX    TMP DP  RH WIND       PRES   REMARKS
LA GUARDIA NY  PTSUNNY   89  67  47 NW12      29.88F HX  92
RALEIGH NC     PTSUNNY   95  70  44 VRB5      30.01S HX 101
ATLANTA GA     FAIR      90  72  55 S3        30.07F HX  97
NEW ORLEANS LA PTSUNNY   93  74  53 N8        30.03F HX 103
OKLAHOMA CITY  FAIR      95  67  39 S13G22    29.98F HX  99
ALBUQUERQUE NM FAIR      81  54  39 VRB3      30.22F
SALT LAKE CITY FAIR      88  53  30 S10       30.07S
LOS ANGELES CA FAIR      75  64  68 W9        29.97R
BOISE ID       FAIR      75  45  34 NW7       30.09S
SEATTLE WA     PTSUNNY   63  54  72 SW6       30.17R
$$

*** WEATHER ACROSS MANITOBA...SASKATCHEWAN AND ONTARIO ***
                ***ONTARIO***

CITY           SKY/WX    TMP DP  RH WIND       PRES   REMARKS
GERALDTON      MOSUNNY   70  48  46 N9        29.96S
THUNDER BAY    PTSUNNY   73  57  56 W3        29.96R
SIOUX LOOKOUT  PTSUNNY   75  59  57 VRB5      29.94F
TORONTO        PTSUNNY   82  57  42 NW21      29.93R
BIG TROUT LK   CLOUDY    63  39  42 NW9       29.96S
PICKLE LAKE    MOSUNNY   66  43  42 SE5       29.98F
DRYDEN         MOSUNNY   75  55  50 VRB12     29.94S
KENORA         PTSUNNY   75  55  50 SE8       29.92F
$$
                *** MANITOBA***

CITY           SKY/WX    TMP DP  RH WIND       PRES   REMARKS
BRANDON        PTSUNNY   73  63  68 NE10      29.84F
DAUPHIN        MOSUNNY   72  63  73 E12       29.87S
ISLAND LAKE    MOSUNNY   64  41  42 W6        29.99S
PILOT MOUND      N/A     73  64  73 NE7         N/A
THE PAS        PTSUNNY   70  46  43 SE10G18   29.95S
THOMPSON       MOSUNNY   68  37  32 VRB3      29.98S
WINNIPEG       LGT RAIN  72  59  64 E14G21    29.83S
LYNN LAKE      SUNNY     68  39  34 E5        29.99F
CHURCHILL      MOSUNNY   55  45  67 N9        29.93S
GILLAM         MOSUNNY   66  43  42 W10       29.94F
$$
                ***SASKATCHEWAN***

CITY           SKY/WX    TMP DP  RH WIND       PRES   REMARKS
ESTEVAN        PTSUNNY   72  64  78 SE12      29.81R
KINDERSLEY     MOSUNNY   66  55  68 NW7       29.88R
LLOYDMINSTER   PTSUNNY   63  55  77 W9        29.83S
PRINCE ALBERT  LGT RAIN  63  57  82 SW8       29.91R
REGINA         PTSUNNY   75  55  50 SW6       29.81S
YORKTON        PTSUNNY   75  63  64 SE13G18   29.84R



USA.gov is the U.S. government's official web portal to all federal, state and local government web resources and services.